Regional Weather Roundup
Issued by NWS

Home | Current Version | Previous Version | Graphics & Text | Print | Product List | Glossary On
Versions: 1 2 3 4 5 6 7 8 9 10 11 12 13 14 15 16 17 18 19 20 21 22 23 24 25 26 27 28 29 30 31 32 33 34 35 36 37 38 39 40 41 42 43 44 45 46 47 48 49 50
000
ASUS43 KOAX 220210
RWRNE

WEATHER ROUNDUP FOR NEBRASKA
NATIONAL WEATHER SERVICE OMAHA NE
800 PM CST SUN DEC 21 2014

NOTES: SATELLITE DATA IS BEING USED TO AUGMENT CLOUD COVER ABOVE
       12000 FEET.
       "FAIR" INDICATES FEW OR NO CLOUDS BELOW 12,000 FEET WITH NO
       SIGNIFICANT WEATHER AND/OR OBSTRUCTIONS TO VISIBILITY.

  * THESE STATIONS DO NOT REPORT WEATHER SUCH AS RAIN...SNOW OR FOG.

NEZ001>004-019>022-054>056-220300-
NEBRASKA PANHANDLE

CITY           SKY/WX    TMP DP  RH WIND       PRES   REMARKS
SCOTTSBLUFF    MOCLDY    36  30  79 CALM      29.51R
ALLIANCE       PTCLDY    32  30  92 W6        29.48S WCI  26
CHADRON        PTCLDY    32  28  85 W7        29.48R WCI  26
KIMBALL        CLOUDY    41  33  74 W18       29.51S
SIDNEY         MOCLDY    38  31  76 W9        29.52S WCI  31
$$

NEZ057>060-069>072-079>082-220300-
SOUTHWEST NEBRASKA

CITY           SKY/WX    TMP DP  RH WIND       PRES   REMARKS
NORTH PLATTE   CLOUDY    35  31  85 S9        29.50F WCI  28
IMPERIAL       CLOUDY    37  31  78 CALM      29.50F
LEXINGTON      CLOUDY    40  37  87 SW6       29.54S
MCCOOK         CLOUDY    38  34  85 S6        29.53F WCI  33
OGALLALA       CLOUDY    40  33  77 NW6       29.49F
$$

NEZ005>010-023>029-035>040-094-220300-
NORTH CENTRAL NEBRASKA

CITY           SKY/WX    TMP DP  RH WIND       PRES   REMARKS
VALENTINE      CLOUDY    37  31  78 SW8       29.42R WCI  31
AINSWORTH      CLOUDY    36  32  84 S14       29.44R WCI  27
BROKEN BOW     CLOUDY    38  35  89 S9        29.51F WCI  31
O`NEILL        DRIZZLE   38  37  98 S15G22    29.50R WCI  29
THEDFORD       MOCLDY    36  33  89 S12       29.46R WCI  28
$$

NEZ041-046>049-061>064-073>077-083>087-220300-
SOUTH CENTRAL NEBRASKA

CITY           SKY/WX    TMP DP  RH WIND       PRES   REMARKS
GRAND ISLAND   CLOUDY    40  38  93 S16       29.58F WCI  31
AURORA         CLOUDY    40  40 100 S16       29.58F WCI  32
HASTINGS       CLOUDY    40  38  93 S14G22    29.57S WCI  32
HEBRON         CLOUDY    42  40  92 S10       29.64F FOG
HOLDREGE       CLOUDY    38  37  94 S15       29.55F FOG     WCI  30
KEARNEY *      CLOUDY    39  36  87 SE17      29.56S WCI  30
YORK           CLOUDY    41  39  93 S16       29.61F
$$

NEZ011>018-030>034-042>045-220300-
NORTHEAST NEBRASKA

CITY           SKY/WX    TMP DP  RH WIND       PRES   REMARKS
NORFOLK        CLOUDY    40  38  93 S16       29.57F WCI  31
ALBION         DRIZZLE   39  37  89 SE13G18   29.55F WCI  32
BLAIR          CLOUDY    42  40  93 S17       29.66F FOG
COLUMBUS *     CLOUDY    41  37  87 S15       29.62F
FREMONT        CLOUDY    42  41  96 SE10      29.65F FOG
TEKAMAH        CLOUDY    42  40  92 S17       29.66F FOG
WAYNE          CLOUDY    40  39  95 S15       29.60F WCI  32
$$

NEZ050>053-065>068-078-088>093-220300-
SOUTHEAST NEBRASKA

CITY           SKY/WX    TMP DP  RH WIND       PRES   REMARKS
LINCOLN        CLOUDY    42  41  96 S14       29.67F FOG
OMAHA EPPLEY   DRIZZLE   42  41  96 S17       29.70F FOG
BEATRICE       CLOUDY    42  41  97 S12       29.67F FOG
FALLS CITY     CLOUDY    43  41  93 S14       29.73F FOG
NEBRASKA CITY  DRIZZLE   41  41 100 S14       29.71F
PLATTSMOUTH    CLOUDY    41  39  93 S12       29.69F FOG
$$

NEZ044-045-051>053-067-220300-
OMAHA AREA

CITY           SKY/WX    TMP DP  RH WIND       PRES   REMARKS
OMAHA EPPLEY   DRIZZLE   42  41  96 S17       29.70F FOG
BLAIR          CLOUDY    42  40  93 S17       29.66F FOG
FREMONT        CLOUDY    42  41  96 SE10      29.65F FOG
MILLARD        CLOUDY    43  40  92 SE13      29.68F FOG
OFFUTT AFB     CLOUDY    42  40  95 SE13      29.69F FOG
PLATTSMOUTH    CLOUDY    41  39  93 S12       29.69F FOG
WAHOO          DRIZZLE   42  39  91 S13       29.65F
$$


USA.gov is the U.S. government's official web portal to all federal, state and local government web resources and services.